"Pseudo-MPEC" for P116gvT

Created 2020 Sep 16 20:07:48 UT using Find_Orb

Click here for an explanation of pseudo-MPECs

 
 Astrometry: 
     P116gvT  C2020 09 15^Z/8n(8NfBC53@C]V1yYJa2y=k=Qs5-%N!AstrometryZV9.w6+fF52
     P116gvT  C2020 09 15IK0`'A_:E!MxroE2_R73-qCGY@7e-:6qrl:2l;9j31`]VrBb0Up[F52
     P116gvT  C2020 09 15Rqos.ZZJ+VBwJ/Ce4S4t6DGX-1gWF?N;l6uL81Hvcs_,8btkvI'tF52
     P116gvT  C2020 09 15p9['8'FfC8r?nr*qImj.T\pNNFw/umIVNOoVO5SBlK;:xE1GmU/GF52
     P116gvT  C2020 09 168ufsO!@xXI('Y1redacted;2-.7HI5H46;jFb(]H`0wb+Pt.2UgCF51
     P116gvT  C2020 09 16qSQZjS]Z!qJap$CPk7CS1M'?_\`\clickS9gg^AJrvBB9]heremqF51
     P116gvT  C2020 09 16[wghnIuYPS5^9Ll-m3Eh^=eZ9Xq`)Rfor^qY?\R3$+=y(c,vP+d4F51
     P116gvT  C2020 09 16OH;atVkn_t[vvexplanationgcUseLLHi2D?=..?804y*jD1^`JYF51

Station data:
(F51) Pan-STARRS 1, Haleakala  (N20.707235 W156.255910)  US/Hawaii.
   Observers N. Primak, A. Schultz, S. Watters, J. Thiel, T. Goggia. Measurer
   PS1 Science Consortium. 1.8-m Ritchey-Chrétien + CCD.
(F52) Pan-STARRS 2, Haleakala  (N20.707384 W156.255910)  US/Hawaii. 1.8-m
   Ritchey-Chrétien + CCD.

Orbital elements:  P116gvT
   Perihelion 2020 Nov 25.165623 +/- 3.93 TT =  3:58:29 (JD 2459178.665623)
Epoch 2020 Sep 16.0 TT = JDT 2459108.5   Earth MOID: 0.2055   AutoNEOCP
M 328.82026171 +/- 6                (J2000 ecliptic)
n   0.44437342 +/- 0.0602           Peri.  236.83626 +/- 3.3
a   1.70073765 +/- 0.154            Node   175.46074 +/- 0.34
e   0.3657806 +/- 0.0547            Incl.   37.64830 +/- 2.0
P   2.22/810.11d           H 22.8   G  0.15   U 10.9  
q 1.07864078 +/- 0.0197    Q 2.32283453 +/- 0.301
From 8 observations 2020 Sept. 15-16 (22.8 hr); mean residual 0".18
Residuals in arcseconds: 
200915 F52  .15-  .09-    200915 F52  .03-  .37+    200916 F51  .03+  .26+    
200915 F52  .14+  .07-    200916 F51  .04+  .43-    200916 F51  .11-  .12+    
200915 F52  .04+  .19-    200916 F51  .04+  .04+    

Ephemerides (geocentric):
Date (UTC) HH   RA              Dec         delta   r     elong  mag " sig PA
---- -- -- --  -------------   -----------  ------ ------ -----  --- ---- ---
2020 09 16 20  21 59 29.867   +07 42 31.12  .28606 1.2674 153.4 21.6 .738  50
2020 09 16 21  21 59 28.318   +07 37 19.88  .28587 1.2672 153.4 21.6 .802  45
2020 09 16 22  21 59 26.772   +07 32 08.19  .28568 1.2670 153.4 21.6 .873  41
2020 09 16 23  21 59 25.230   +07 26 56.07  .28549 1.2668 153.4 21.6 .949  37
2020 09 17 00  21 59 23.691   +07 21 43.50  .28531 1.2666 153.3 21.6 1.03  34
2020 09 17 01  21 59 22.157   +07 16 30.50  .28512 1.2664 153.3 21.6 1.12  31
2020 09 17 02  21 59 20.627   +07 11 17.07  .28494 1.2662 153.3 21.6 1.21  28
2020 09 17 03  21 59 19.100   +07 06 03.20  .28475 1.2660 153.3 21.6 1.31  26
2020 09 17 04  21 59 17.577   +07 00 48.89  .28457 1.2658 153.3 21.6 1.41  24
2020 09 17 05  21 59 16.059   +06 55 34.16  .28439 1.2657 153.3 21.6 1.52  22
2020 09 17 06  21 59 14.544   +06 50 18.99  .28421 1.2655 153.3 21.6 1.63  20
2020 09 17 07  21 59 13.033   +06 45 03.40  .28403 1.2653 153.3 21.6 1.75  18
2020 09 17 08  21 59 11.526   +06 39 47.37  .28385 1.2651 153.3 21.6 1.87  17
2020 09 17 09  21 59 10.023   +06 34 30.92  .28367 1.2649 153.3 21.6 2.00  15
2020 09 17 10  21 59 08.524   +06 29 14.05  .28349 1.2647 153.3 21.6 2.13  14
2020 09 17 11  21 59 07.029   +06 23 56.75  .28331 1.2645 153.3 21.6 2.26  13
2020 09 17 12  21 59 05.538   +06 18 39.03  .28314 1.2643 153.3 21.6 2.40  12
2020 09 17 13  21 59 04.051   +06 13 20.89  .28296 1.2641 153.3 21.6 2.54  11
2020 09 17 14  21 59 02.568   +06 08 02.33  .28279 1.2639 153.2 21.6 2.69  10
2020 09 17 15  21 59 01.089   +06 02 43.35  .28261 1.2637 153.2 21.6 2.84   9
2020 09 17 16  21 58 59.615   +05 57 23.95  .28244 1.2635 153.2 21.6 3.00   8
2020 09 17 17  21 58 58.144   +05 52 04.14  .28227 1.2633 153.2 21.5 3.16   7
2020 09 17 18  21 58 56.678   +05 46 43.92  .28209 1.2631 153.2 21.5 3.33   6
2020 09 17 19  21 58 55.215   +05 41 23.28  .28192 1.2630 153.2 21.5 3.50   5
2020 09 17 20  21 58 53.757   +05 36 02.24  .28175 1.2628 153.2 21.5 3.67   5
2020 09 17 21  21 58 52.303   +05 30 40.78  .28159 1.2626 153.2 21.5 3.85   4
2020 09 17 22  21 58 50.853   +05 25 18.92  .28142 1.2624 153.1 21.5 4.03   3
2020 09 17 23  21 58 49.407   +05 19 56.65  .28125 1.2622 153.1 21.5 4.21   3
2020 09 18 00  21 58 47.966   +05 14 33.98  .28108 1.2620 153.1 21.5 4.40   2
2020 09 18 01  21 58 46.528   +05 09 10.90  .28092 1.2618 153.1 21.5 4.60   2
2020 09 18 02  21 58 45.095   +05 03 47.42  .28075 1.2616 153.1 21.5 4.79   1
2020 09 18 03  21 58 43.666   +04 58 23.54  .28059 1.2614 153.1 21.5 5.00   1
2020 09 18 04  21 58 42.242   +04 52 59.27  .28043 1.2612 153.1 21.5 5.20   0
2020 09 18 05  21 58 40.822   +04 47 34.60  .28027 1.2610 153.0 21.5 5.41   0
2020 09 18 06  21 58 39.406   +04 42 09.53  .28010 1.2608 153.0 21.5 5.63 179
2020 09 18 07  21 58 37.994   +04 36 44.07  .27994 1.2607 153.0 21.5 5.85 179
2020 09 18 08  21 58 36.586   +04 31 18.22  .27978 1.2605 153.0 21.5 6.07 178
2020 09 18 09  21 58 35.183   +04 25 51.98  .27963 1.2603 153.0 21.5 6.30 178
2020 09 18 10  21 58 33.785   +04 20 25.35  .27947 1.2601 152.9 21.5 6.53 178
2020 09 18 11  21 58 32.390   +04 14 58.33  .27931 1.2599 152.9 21.5 6.76 177
2020 09 18 12  21 58 31.000   +04 09 30.93  .27915 1.2597 152.9 21.5 7.00 177
2020 09 18 13  21 58 29.615   +04 04 03.15  .27900 1.2595 152.9 21.5 7.24 177
2020 09 18 14  21 58 28.234   +03 58 34.99  .27885 1.2593 152.9 21.5 7.49 176
2020 09 18 15  21 58 26.857   +03 53 06.44  .27869 1.2591 152.8 21.5 7.74 176
2020 09 18 16  21 58 25.485   +03 47 37.52  .27854 1.2589 152.8 21.5 8.00 176
2020 09 18 17  21 58 24.117   +03 42 08.22  .27839 1.2587 152.8 21.5 8.26 175
2020 09 18 18  21 58 22.754   +03 36 38.55  .27824 1.2585 152.8 21.5 8.52 175
2020 09 18 19  21 58 21.395   +03 31 08.51  .27809 1.2584 152.8 21.5 8.79 175